Norman, OK

5:14 AM CST on December 17, 2017 (GMT -0600)
Univ. Of Oklahoma Westheimer

Weather History for KOUN - April, 2014

Change the Weather History Date:

Sunday, April 13, 2014

  Actual Average Record
Temperature  
Mean Temperature 67 °F -  
Max Temperature 84 °F 73 °F 96 °F (1972)
Min Temperature 50 °F 51 °F 22 °F (1957)
Cooling Degree Days 2    
Growing Degree Days 17 (Base 50)    
Moisture  
Dew Point 59 °F    
Average Humidity 72    
Maximum Humidity 94    
Minimum Humidity 42    
Precipitation  
Precipitation 0.05 in - - ()
Sea Level Pressure  
Sea Level Pressure 29.60 in    
Wind  
Wind Speed 22 mph (South)    
Max Wind Speed 32 mph    
Max Gust Speed 43 mph    
Visibility 10 miles    
Events Rain , Thunderstorm    
Averages and records for this station are not official NWS values.
T = Trace of Precipitation, MM = Missing Value Source: NWS Daily Summary

Daily Weather History Graph

Daily Weather History Graph

Search for Another Location

Airport or City:

Trip Planner

Search our weather history database for the weather conditions in past years. The results will help you decide how hot, cold, wet, or windy it might be!

Date:

Astronomy

Apr. 13, 2014 Rise Set
Actual Time 7:00 AM CDT 8:01 PM CDT
Civil Twilight 6:34 AM CDT 8:27 PM CDT
Nautical Twilight 6:03 AM CDT 8:58 PM CDT
Astronomical Twilight 5:31 AM CDT 9:30 PM CDT
Moon 6:42 PM CDT (4/13) 5:56 AM CDT (4/13)
Length of Visible Light 13h 53m
Length of Day
13h 00m
Waxing Gibbous, 97% of the Moon is Illuminated
Apr 13
Waxing Gibbous
Apr 15
Full
Apr 22
Last Quarter
Apr 29
New
May 6
First Quarter

Hourly Weather History & Observations

Time (CDT) Temp. Heat Index Dew Point Humidity Pressure Visibility Wind Dir Wind Speed Gust Speed Precip Events Conditions
12:15 AM 71.6 °F - 60.8 °F 69% 29.66 in 10.0 mi South 19.6 mph 27.6 mph N/A   Clear
12:35 AM 71.6 °F - 62.6 °F 73% 29.67 in 10.0 mi South 20.7 mph 27.6 mph N/A   Clear
12:55 AM 71.6 °F - 62.6 °F 73% 29.66 in 10.0 mi South 23.0 mph 29.9 mph N/A   Clear
1:15 AM 71.6 °F - 62.6 °F 73% 29.66 in 10.0 mi South 18.4 mph 26.5 mph N/A   Clear
1:35 AM 69.8 °F - 62.6 °F 78% 29.65 in 10.0 mi South 18.4 mph 27.6 mph N/A   Clear
1:55 AM 69.8 °F - 62.6 °F 78% 29.65 in 10.0 mi South 20.7 mph 25.3 mph N/A   Clear
2:15 AM 69.8 °F - 62.6 °F 78% 29.65 in 10.0 mi South 18.4 mph 27.6 mph N/A   Clear
2:35 AM 69.8 °F - 62.6 °F 78% 29.65 in 10.0 mi South 19.6 mph 27.6 mph N/A   Clear
2:55 AM 69.8 °F - 62.6 °F 78% 29.64 in 10.0 mi SSE 25.3 mph 32.2 mph N/A   Scattered Clouds
3:15 AM 69.8 °F - 62.6 °F 78% 29.63 in 10.0 mi SSE 18.4 mph 29.9 mph N/A   Clear
3:35 AM 68.0 °F - 62.6 °F 83% 29.63 in 10.0 mi South 20.7 mph 26.5 mph N/A   Clear
3:55 AM 68.0 °F - 62.6 °F 83% 29.63 in 10.0 mi South 20.7 mph 28.8 mph N/A   Clear
4:15 AM 68.0 °F - 62.6 °F 83% 29.63 in 10.0 mi South 21.9 mph 28.8 mph N/A   Clear
4:35 AM 68.0 °F - 62.6 °F 83% 29.63 in 10.0 mi South 24.2 mph 32.2 mph N/A   Clear
4:55 AM 68.0 °F - 62.6 °F 83% 29.63 in 10.0 mi South 17.3 mph 29.9 mph N/A   Scattered Clouds
5:15 AM 68.0 °F - 62.6 °F 83% 29.62 in 10.0 mi South 18.4 mph 27.6 mph N/A   Mostly Cloudy
5:35 AM 68.0 °F - 62.6 °F 83% 29.62 in 10.0 mi South 17.3 mph 28.8 mph N/A   Scattered Clouds
5:55 AM 68.0 °F - 62.6 °F 83% 29.61 in 10.0 mi South 20.7 mph 31.1 mph N/A   Mostly Cloudy
6:15 AM 68.0 °F - 62.6 °F 83% 29.59 in 10.0 mi SSE 16.1 mph 33.4 mph N/A   Mostly Cloudy
6:35 AM 68.0 °F - 62.6 °F 83% 29.56 in 10.0 mi SSE 18.4 mph 23.0 mph N/A   Mostly Cloudy
6:55 AM 68.0 °F - 60.8 °F 78% 29.60 in 10.0 mi South 25.3 mph 28.8 mph N/A   Clear
7:15 AM 68.0 °F - 62.6 °F 83% 29.60 in 10.0 mi South 21.9 mph 31.1 mph N/A   Clear
7:35 AM 66.2 °F - 62.6 °F 88% 29.60 in 10.0 mi SSE 18.4 mph 26.5 mph N/A   Clear
7:55 AM 64.4 °F - 62.6 °F 94% 29.62 in 10.0 mi SSE 18.4 mph 25.3 mph N/A   Scattered Clouds
8:15 AM 64.4 °F - 62.6 °F 94% 29.62 in 10.0 mi SSE 21.9 mph 27.6 mph N/A   Overcast
8:35 AM 66.2 °F - 62.6 °F 88% 29.62 in 10.0 mi SSE 21.9 mph 28.8 mph N/A   Overcast
8:55 AM 66.2 °F - 62.6 °F 88% 29.61 in 10.0 mi SSE 17.3 mph 26.5 mph N/A   Overcast
9:15 AM 66.2 °F - 62.6 °F 88% 29.61 in 10.0 mi SSE 21.9 mph 29.9 mph N/A   Overcast
9:55 AM 68.0 °F - 62.6 °F 83% 29.61 in 10.0 mi SSE 24.2 mph 31.1 mph N/A   Overcast
10:15 AM 68.0 °F - 62.6 °F 83% 29.61 in 10.0 mi South 20.7 mph 32.2 mph N/A   Overcast
10:35 AM 68.0 °F - 62.6 °F 83% 29.61 in 10.0 mi South 25.3 mph 35.7 mph N/A   Overcast
10:55 AM 69.8 °F - 62.6 °F 78% 29.60 in 10.0 mi South 28.8 mph 35.7 mph N/A   Overcast
11:15 AM 69.8 °F - 62.6 °F 78% 29.60 in 10.0 mi South 29.9 mph 36.8 mph N/A   Overcast
11:35 AM 71.6 °F - 62.6 °F 73% 29.59 in 10.0 mi South 20.7 mph 29.9 mph N/A   Overcast
11:55 AM 71.6 °F - 62.6 °F 73% 29.59 in 10.0 mi South 27.6 mph 33.4 mph N/A   Mostly Cloudy
12:15 PM 75.2 °F - 62.6 °F 65% 29.57 in 10.0 mi South 27.6 mph 36.8 mph N/A   Scattered Clouds
12:35 PM 77.0 °F - 62.6 °F 61% 29.57 in 10.0 mi South 32.2 mph 38.0 mph N/A   Scattered Clouds
12:55 PM 77.0 °F - 62.6 °F 61% 29.56 in 10.0 mi SSW 24.2 mph 39.1 mph N/A   Scattered Clouds
1:15 PM 78.8 °F - 62.6 °F 57% 29.55 in 10.0 mi South 27.6 mph 35.7 mph N/A   Scattered Clouds
1:35 PM 78.8 °F - 62.6 °F 57% 29.53 in 10.0 mi South 27.6 mph 41.4 mph N/A   Scattered Clouds
1:55 PM 80.6 °F 81.5 °F 60.8 °F 51% 29.52 in 10.0 mi South 29.9 mph 35.7 mph N/A   Scattered Clouds
2:15 PM 80.6 °F 81.5 °F 60.8 °F 51% 29.52 in 10.0 mi South 29.9 mph 42.6 mph N/A   Clear
2:35 PM 82.4 °F 82.5 °F 59.0 °F 45% 29.50 in 10.0 mi SSW 31.1 mph 40.3 mph N/A   Clear
2:55 PM 82.4 °F 82.5 °F 59.0 °F 45% 29.49 in 10.0 mi South 28.8 mph 35.7 mph N/A   Clear
3:15 PM 82.4 °F 82.5 °F 59.0 °F 45% 29.48 in 10.0 mi South 27.6 mph 34.5 mph N/A   Clear
3:35 PM 82.4 °F 82.9 °F 60.8 °F 48% 29.46 in 10.0 mi South 25.3 mph 31.1 mph N/A   Clear
3:55 PM 84.2 °F 83.8 °F 59.0 °F 42% 29.43 in 10.0 mi South 23.0 mph 38.0 mph N/A   Clear
4:35 PM 71.6 °F - 59.0 °F 64% 29.50 in 7.0 mi ESE 6.9 mph - 0.05 in Rain , Thunderstorm Light Thunderstorms and Rain
4:55 PM 69.8 °F - 55.4 °F 60% 29.51 in 10.0 mi NNW 27.6 mph - 0.05 in Rain , Thunderstorm Light Thunderstorms and Rain
5:15 PM 66.2 °F - 53.6 °F 64% 29.55 in 10.0 mi NNW 26.5 mph 34.5 mph N/A Rain , Thunderstorm Light Thunderstorms and Rain
5:35 PM 68.0 °F - 51.8 °F 56% 29.56 in 10.0 mi NNW 27.6 mph 32.2 mph N/A   Clear
5:55 PM 68.0 °F - 51.8 °F 56% 29.58 in 10.0 mi NNW 21.9 mph 28.8 mph N/A   Scattered Clouds
6:15 PM 66.2 °F - 51.8 °F 60% 29.63 in 10.0 mi NW 18.4 mph 28.8 mph N/A   Scattered Clouds
6:35 PM 62.6 °F - 50.0 °F 63% 29.64 in 10.0 mi NNW 19.6 mph 31.1 mph N/A   Scattered Clouds
6:55 PM 59.0 °F - 48.2 °F 67% 29.66 in 10.0 mi NNW 24.2 mph 31.1 mph N/A   Mostly Cloudy
7:15 PM 55.4 °F - 46.4 °F 72% 29.68 in 10.0 mi NNW 24.2 mph 32.2 mph N/A   Scattered Clouds
7:35 PM 53.6 °F - 44.6 °F 72% 29.68 in 10.0 mi NNW 20.7 mph 27.6 mph N/A   Mostly Cloudy
7:55 PM 51.8 °F - 44.6 °F 76% 29.70 in 10.0 mi NW 23.0 mph 31.1 mph N/A   Overcast
8:15 PM 50.0 °F - 44.6 °F 82% 29.73 in 10.0 mi NNW 27.6 mph 34.5 mph N/A   Overcast
8:35 PM 50.0 °F - 42.8 °F 76% 29.76 in 10.0 mi North 23.0 mph 33.4 mph N/A   Overcast